User: anonymous   Login
Location: Newark
(52.9447°N, 5.7817°E)
Time: 10:08:35
(UTC+00:00)
Language:

ISS - Orbit

View from above orbital plane
View from above orbital plane
View from above satellite
View from above satellite

Ground track
Ground track

The orbit data is extracted from the following two-line orbital elements,

1 25544U 98067A   20295.19445602  .00000866  00000-0  23619-4 0  9994
2 25544  51.6444  84.9764 0001484  49.6139 309.5379 15.49318857251547
Epoch (UTC): 21 October 2020 04:40:01
Eccentricity: 0.0001484
inclination: 51.6444°
perigee height: 418 km
apogee height: 420 km
right ascension of ascending node: 84.9764°
argument of perigee: 49.6139°
revolutions per day: 15.49318857
mean anomaly at epoch: 309.5379°
orbit number at epoch: 25154

The dashed part of the orbit path shows where the satellite is in the earth's shadow,  

DLR